Terminal Aerodrome Forecast
Issued by NWS

Home | Current Version | Previous Version | Text Only | Print | Product List | Glossary On
Versions: 1 2 3 4 5 6 7 8 9 10 11 12 13 14 15
000
FTUS45 KABQ 291740
TAFFMN
TAF
KFMN 291740Z 2918/3018 VRB06KT P6SM SKC
     FM292000 29014KT P6SM FEW120
     FM300200 10009KT P6SM SCT150=

USA.gov is the U.S. government's official web portal to all federal, state and local government web resources and services.